| time (UTC) | temp C | wind direction | speed KPH | gust KPH | rain 1hr cm | rain 24hr cm | rain mn cm | humidity % | barometer mb |
| 20260510013507 | 18 | 302 | 0.0 | 4.8 | 0.00 | 0.00 | 0.00 | 47 | 1018.7 |
| 20260510013010 | 18 | 273 | 0.0 | 4.8 | 0.00 | 0.00 | 0.00 | 48 | 1018.7 |
| 20260510012727 | 18 | 260 | 0.0 | 3.2 | 0.00 | 0.00 | 0.00 | 46 | 1018.7 |
| 20260510012002 | 18 | 267 | 0.0 | 3.2 | 0.00 | 0.00 | 0.00 | 44 | 1018.7 |
| 20260510011503 | 18 | 294 | 0.0 | 1.6 | 0.00 | 0.05 | 0.00 | 45 | 1018.7 |
| 20260510011231 | 18 | 279 | 0.0 | 11.3 | 0.00 | 0.08 | 0.00 | 42 | 1018.7 |
| 20260510010504 | 18 | 327 | 3.2 | 11.3 | 0.00 | 0.08 | 0.00 | 42 | 1018.7 |
| 20260510010220 | 18 | 183 | 0.0 | 9.7 | 0.00 | 0.08 | 0.00 | 43 | 1018.6 |
| 20260510005454 | 19 | 298 | 0.0 | 9.7 | 0.00 | 0.08 | 0.00 | 42 | 1018.6 |
| 20260510004948 | 19 | 41 | 0.0 | 11.3 | 0.00 | 0.08 | 0.00 | 43 | 1018.6 |
| 20260510004450 | 19 | 130 | 1.6 | 11.3 | 0.00 | 0.08 | 0.00 | 42 | 1018.6 |
| 20260510003949 | 19 | 295 | 0.0 | 3.2 | 0.00 | 0.08 | 0.00 | 41 | 1018.5 |
| 20260510003705 | 19 | 94 | 0.0 | 3.2 | 0.00 | 0.08 | 0.00 | 40 | 1018.5 |
| 20260510002944 | 19 | 291 | 0.0 | 8.0 | 0.00 | 0.08 | 0.00 | 40 | 1018.5 |
| 20260510002444 | 19 | 232 | 0.0 | 8.0 | 0.00 | 0.08 | 0.00 | 39 | 1018.5 |
| 20260510001939 | 19 | 337 | 0.0 | 8.0 | 0.00 | 0.08 | 0.00 | 40 | 1018.5 |
| 20260510001435 | 20 | 304 | 0.0 | 8.0 | 0.00 | 0.08 | 0.00 | 42 | 1018.5 |
| 20260510001208 | 20 | 296 | 1.6 | 14.5 | 0.00 | 0.08 | 0.00 | 39 | 1018.5 |
| 20260510000435 | 20 | 337 | 3.2 | 14.5 | 0.00 | 0.08 | 0.00 | 41 | 1018.5 |
| 20260509235938 | 20 | 323 | 0.0 | 12.9 | 0.00 | 0.08 | 0.00 | 39 | 1018.4 |
| 20260509235421 | 20 | 284 | 0.0 | 12.9 | 0.00 | 0.08 | 0.00 | 39 | 1018.5 |
| 20260509234920 | 20 | 209 | 3.2 | 9.7 | 0.00 | 0.08 | 0.00 | 38 | 1018.4 |
| 20260509234636 | 20 | 185 | 0.0 | 4.8 | 0.00 | 0.08 | 0.00 | 41 | 1018.4 |
| 20260509233906 | 20 | 53 | 0.0 | 6.4 | 0.00 | 0.08 | 0.00 | 42 | 1018.5 |
| 20260509233401 | 20 | 265 | 0.0 | 6.4 | 0.00 | 0.08 | 0.00 | 41 | 1018.4 |
| 20260509232901 | 20 | 230 | 0.0 | 8.0 | 0.00 | 0.08 | 0.00 | 40 | 1018.5 |
| 20260509232357 | 20 | 318 | 1.6 | 12.9 | 0.00 | 0.08 | 0.00 | 41 | 1018.5 |
| 20260509231856 | 20 | 311 | 3.2 | 12.9 | 0.00 | 0.08 | 0.00 | 40 | 1018.6 |
| 20260509231619 | 20 | 24 | 1.6 | 11.3 | 0.00 | 0.08 | 0.00 | 40 | 1018.5 |
| 20260509230857 | 20 | 0 | 0.0 | 6.4 | 0.00 | 0.08 | 0.00 | 41 | 1018.6 |
| 20260509230354 | 19 | 25 | 1.6 | 6.4 | 0.00 | 0.08 | 0.00 | 42 | 1018.7 |
| 20260509225841 | 19 | 188 | 1.6 | 6.4 | 0.00 | 0.08 | 0.00 | 41 | 1018.7 |
| 20260509225338 | 19 | 0 | 1.6 | 12.9 | 0.00 | 0.08 | 0.00 | 41 | 1018.8 |
| 20260509224832 | 19 | 110 | 6.4 | 12.9 | 0.00 | 0.08 | 0.00 | 40 | 1018.8 |
| 20260509224321 | 19 | 261 | 0.0 | 8.0 | 0.00 | 0.08 | 0.00 | 42 | 1018.9 |
| 20260509223817 | 19 | 240 | 0.0 | 9.7 | 0.00 | 0.08 | 0.00 | 43 | 1019.1 |
| 20260509223317 | 19 | 155 | 1.6 | 12.9 | 0.00 | 0.08 | 0.00 | 41 | 1019.1 |
| 20260509222817 | 18 | 178 | 3.2 | 12.9 | 0.00 | 0.08 | 0.00 | 41 | 1019.2 |
| 20260509222318 | 18 | 131 | 0.0 | 6.4 | 0.00 | 0.08 | 0.00 | 44 | 1018.9 |
| 20260509221817 | 18 | 352 | 0.0 | 6.4 | 0.00 | 0.08 | 0.00 | 42 | 1019.1 |
| 20260509221312 | 18 | 348 | 1.6 | 6.4 | 0.00 | 0.08 | 0.00 | 43 | 1019.1 |
| 20260509220813 | 18 | 62 | 1.6 | 12.9 | 0.00 | 0.08 | 0.00 | 42 | 1019.1 |
| 20260509220542 | 19 | 336 | 1.6 | 12.9 | 0.00 | 0.08 | 0.00 | 42 | 1019.1 |
| 20260509215814 | 19 | 176 | 0.0 | 8.0 | 0.00 | 0.08 | 0.00 | 42 | 1019.2 |
| 20260509215317 | 19 | 321 | 1.6 | 8.0 | 0.00 | 0.08 | 0.00 | 41 | 1019.1 |
| 20260509214804 | 19 | 253 | 1.6 | 14.5 | 0.00 | 0.08 | 0.00 | 42 | 1019.1 |
| 20260509214304 | 19 | 272 | 1.6 | 14.5 | 0.00 | 0.08 | 0.00 | 43 | 1019.1 |
| 20260509213759 | 18 | 317 | 0.0 | 12.9 | 0.00 | 0.08 | 0.00 | 45 | 1019.2 |
| 20260509213259 | 18 | 171 | 0.0 | 12.9 | 0.00 | 0.08 | 0.00 | 42 | 1019.2 |
| 20260509213012 | 18 | 280 | 0.0 | 12.9 | 0.00 | 0.08 | 0.00 | 43 | 1019.3 |
| 20260509212257 | 19 | 128 | 1.6 | 8.0 | 0.00 | 0.08 | 0.00 | 41 | 1019.3 |
| 20260509211742 | 19 | 149 | 1.6 | 11.3 | 0.00 | 0.08 | 0.00 | 41 | 1019.3 |
| 20260509211232 | 19 | 201 | 0.0 | 12.9 | 0.00 | 0.08 | 0.00 | 41 | 1019.3 |
| 20260509210956 | 19 | 180 | 6.4 | 16.1 | 0.00 | 0.08 | 0.00 | 42 | 1019.4 |
| 20260509210707 | 19 | 154 | 3.2 | 16.1 | 0.00 | 0.08 | 0.00 | 41 | 1019.4 |
| 20260509205725 | 19 | 196 | 3.2 | 11.3 | 0.00 | 0.08 | 0.00 | 41 | 1019.4 |
| 20260509205214 | 19 | 202 | 0.0 | 11.3 | 0.00 | 0.08 | 0.00 | 44 | 1019.3 |
| 20260509204714 | 19 | 47 | 3.2 | 12.9 | 0.00 | 0.08 | 0.00 | 41 | 1019.3 |
| 20260509204216 | 19 | 348 | 3.2 | 12.9 | 0.00 | 0.08 | 0.00 | 44 | 1019.2 |
| 20260509203710 | 19 | 318 | 3.2 | 12.9 | 0.00 | 0.08 | 0.00 | 42 | 1019.3 |
| 20260509203210 | 19 | 317 | 1.6 | 12.9 | 0.00 | 0.08 | 0.00 | 45 | 1019.4 |
| 20260509202706 | 18 | 84 | 0.0 | 9.7 | 0.00 | 0.08 | 0.00 | 47 | 1019.3 |
| 20260509202206 | 18 | 103 | 0.0 | 9.7 | 0.00 | 0.08 | 0.00 | 45 | 1019.3 |
| 20260509201706 | 18 | 192 | 0.0 | 17.7 | 0.00 | 0.08 | 0.00 | 45 | 1019.4 |
| 20260509201206 | 18 | 130 | 0.0 | 17.7 | 0.00 | 0.08 | 0.00 | 43 | 1019.4 |
| 20260509200706 | 18 | 348 | 3.2 | 16.1 | 0.00 | 0.08 | 0.00 | 43 | 1019.4 |
| 20260509200207 | 18 | 217 | 4.8 | 14.5 | 0.00 | 0.08 | 0.00 | 43 | 1019.3 |
| 20260509195706 | 19 | 314 | 1.6 | 12.9 | 0.00 | 0.08 | 0.00 | 44 | 1019.4 |
| 20260509195202 | 19 | 211 | 1.6 | 12.9 | 0.00 | 0.08 | 0.00 | 46 | 1019.4 |
| 20260509194656 | 19 | 318 | 3.2 | 8.0 | 0.00 | 0.08 | 0.00 | 44 | 1019.4 |
| 20260509194200 | 18 | 175 | 1.6 | 8.0 | 0.00 | 0.08 | 0.00 | 45 | 1019.4 |
| 20260509193657 | 18 | 0 | 1.6 | 16.1 | 0.00 | 0.08 | 0.00 | 45 | 1019.4 |
| 20260509193158 | 18 | 51 | 0.0 | 16.1 | 0.00 | 0.08 | 0.00 | 49 | 1019.4 |
| 20260509192657 | 18 | 184 | 1.6 | 11.3 | 0.00 | 0.08 | 0.00 | 44 | 1019.4 |
| 20260509192153 | 18 | 321 | 1.6 | 6.4 | 0.00 | 0.08 | 0.00 | 44 | 1019.4 |
| 20260509191653 | 18 | 303 | 1.6 | 12.9 | 0.00 | 0.08 | 0.00 | 46 | 1019.4 |
| 20260509191153 | 18 | 0 | 1.6 | 14.5 | 0.00 | 0.08 | 0.00 | 49 | 1019.6 |
| 20260509190656 | 18 | 155 | 3.2 | 14.5 | 0.00 | 0.08 | 0.00 | 44 | 1019.5 |
| 20260509190154 | 18 | 311 | 3.2 | 11.3 | 0.00 | 0.08 | 0.00 | 47 | 1019.5 |
| 20260509185653 | 17 | 80 | 3.2 | 14.5 | 0.00 | 0.08 | 0.00 | 46 | 1019.5 |
| 20260509185153 | 17 | 323 | 3.2 | 14.5 | 0.00 | 0.08 | 0.00 | 47 | 1019.7 |
| 20260509184913 | 17 | 195 | 1.6 | 8.0 | 0.00 | 0.08 | 0.00 | 47 | 1019.6 |
| 20260509184138 | 17 | 96 | 3.2 | 16.1 | 0.00 | 0.08 | 0.00 | 49 | 1019.6 |
| 20260509183633 | 17 | 76 | 4.8 | 16.1 | 0.00 | 0.08 | 0.00 | 46 | 1019.5 |
| 20260509183134 | 17 | 182 | 6.4 | 14.5 | 0.00 | 0.08 | 0.00 | 47 | 1019.6 |
| 20260509182634 | 17 | 355 | 0.0 | 9.7 | 0.00 | 0.08 | 0.00 | 48 | 1019.5 |
| 20260509182134 | 17 | 288 | 1.6 | 9.7 | 0.00 | 0.08 | 0.00 | 49 | 1019.5 |
| 20260509181634 | 16 | 286 | 0.0 | 9.7 | 0.00 | 0.08 | 0.00 | 52 | 1019.6 |
| 20260509181350 | 16 | 335 | 1.6 | 11.3 | 0.00 | 0.08 | 0.00 | 51 | 1019.6 |
| 20260509180625 | 16 | 327 | 0.0 | 11.3 | 0.00 | 0.08 | 0.00 | 54 | 1019.7 |
| 20260509180125 | 16 | 196 | 6.4 | 14.5 | 0.00 | 0.08 | 0.00 | 51 | 1019.5 |
| 20260509175627 | 16 | 188 | 3.2 | 16.1 | 0.00 | 0.08 | 0.00 | 51 | 1019.6 |
| 20260509175124 | 16 | 203 | 3.2 | 16.1 | 0.00 | 0.08 | 0.00 | 54 | 1019.7 |
| 20260509174625 | 16 | 113 | 4.8 | 14.5 | 0.00 | 0.08 | 0.00 | 52 | 1019.6 |
| 20260509174124 | 16 | 167 | 3.2 | 16.1 | 0.00 | 0.08 | 0.00 | 53 | 1019.5 |
| 20260509173625 | 16 | 317 | 3.2 | 16.1 | 0.00 | 0.08 | 0.00 | 53 | 1019.6 |
| 20260509173125 | 16 | 119 | 3.2 | 12.9 | 0.00 | 0.08 | 0.00 | 56 | 1019.5 |
| 20260509172625 | 15 | 302 | 1.6 | 9.7 | 0.00 | 0.08 | 0.00 | 53 | 1019.7 |
| 20260509172121 | 15 | 80 | 1.6 | 9.7 | 0.00 | 0.08 | 0.00 | 55 | 1019.8 |
| 20260509171615 | 15 | 187 | 1.6 | 11.3 | 0.00 | 0.08 | 0.00 | 55 | 1019.7 |
| 20260509171116 | 15 | 242 | 1.6 | 12.9 | 0.00 | 0.08 | 0.00 | 56 | 1019.7 |
| 20260509170616 | 15 | 125 | 0.0 | 12.9 | 0.00 | 0.08 | 0.00 | 56 | 1019.7 |
| 20260509170116 | 14 | 34 | 0.0 | 8.0 | 0.00 | 0.08 | 0.00 | 62 | 1019.7 |
| 20260509165616 | 14 | 341 | 0.0 | 6.4 | 0.00 | 0.08 | 0.00 | 64 | 1019.6 |
| 20260509165111 | 13 | 125 | 0.0 | 4.8 | 0.00 | 0.08 | 0.00 | 63 | 1019.7 |
| 20260509165054 | 13 | 316 | 0.0 | 4.8 | 0.00 | 0.08 | 0.00 | 74 | 1019.7 |
| 20260509164327 | 13 | 67 | 0.0 | 4.8 | 0.00 | 0.08 | 0.00 | 79 | 1019.7 |
| 20260509163607 | 13 | 67 | 1.6 | 4.8 | 0.00 | 0.08 | 0.00 | 80 | 1019.8 |
| 20260509163107 | 13 | 138 | 0.0 | 4.8 | 0.00 | 0.08 | 0.00 | 85 | 1019.8 |
| 20260509162608 | 12 | 94 | 0.0 | 8.0 | 0.00 | 0.08 | 0.00 | 83 | 1019.7 |
| 20260509162102 | 12 | 267 | 0.0 | 11.3 | 0.00 | 0.08 | 0.00 | 87 | 1019.7 |
| 20260509161821 | 12 | 130 | 1.6 | 11.3 | 0.00 | 0.08 | 0.00 | 88 | 1019.8 |
| 20260509161103 | 11 | 103 | 1.6 | 4.8 | 0.00 | 0.08 | 0.00 | 91 | 1019.8 |
| 20260509160831 | 11 | 151 | 0.0 | 4.8 | 0.00 | 0.08 | 0.00 | 94 | 1019.8 |
| 20260509160059 | 11 | 151 | 0.0 | 6.4 | 0.00 | 0.08 | 0.00 | 96 | 1019.8 |
| 20260509155558 | 10 | 151 | 1.6 | 6.4 | 0.00 | 0.08 | 0.00 | 96 | 1019.8 |
| 20260509155054 | 10 | 209 | 1.6 | 4.8 | 0.00 | 0.08 | 0.00 | 97 | 1019.8 |
| 20260509154549 | 10 | 212 | 0.0 | 3.2 | 0.00 | 0.08 | 0.00 | 97 | 1019.8 |
| 20260509154049 | 10 | 212 | 0.0 | 3.2 | 0.00 | 0.08 | 0.00 | 97 | 1019.8 |
| 20260509153550 | 9 | 211 | 0.0 | 0.0 | 0.00 | 0.08 | 0.00 | 97 | 1019.8 |
| 20260509153543 | 9 | 211 | 0.0 | 0.0 | 0.00 | 0.08 | 0.00 | 98 | 1019.8 |
| 20260509152809 | 8 | 211 | 0.0 | 0.0 | 0.00 | 0.08 | 0.00 | 98 | 1019.8 |
| 20260509152052 | 8 | 211 | 0.0 | 0.0 | 0.00 | 0.08 | 0.00 | 98 | 1019.7 |
| 20260509151540 | 8 | 211 | 0.0 | 0.0 | 0.00 | 0.08 | 0.00 | 98 | 1019.7 |
| 20260509151032 | 8 | 211 | 0.0 | 0.0 | 0.00 | 0.08 | 0.00 | 98 | 1019.7 |
| 20260509150524 | 8 | 211 | 0.0 | 0.0 | 0.00 | 0.08 | 0.00 | 98 | 1019.7 |
| 20260509150025 | 8 | 211 | 0.0 | 0.0 | 0.00 | 0.08 | 0.00 | 98 | 1019.6 |
| 20260509145521 | 8 | 211 | 0.0 | 1.6 | 0.00 | 0.08 | 0.00 | 97 | 1019.6 |
| 20260509145015 | 8 | 211 | 0.0 | 1.6 | 0.00 | 0.08 | 0.00 | 98 | 1019.5 |
| 20260509144731 | 8 | 212 | 0.0 | 0.0 | 0.00 | 0.08 | 0.00 | 98 | 1019.5 |
| 20260509144000 | 7 | 212 | 0.0 | 1.6 | 0.00 | 0.08 | 0.00 | 98 | 1019.5 |
| 20260509143450 | 7 | 212 | 0.0 | 1.6 | 0.00 | 0.08 | 0.00 | 98 | 1019.4 |
| 20260509142953 | 7 | 212 | 0.0 | 0.0 | 0.00 | 0.08 | 0.00 | 98 | 1019.4 |
| 20260509142448 | 7 | 212 | 0.0 | 0.0 | 0.00 | 0.08 | 0.00 | 97 | 1019.3 |
| 20260509141925 | 7 | 212 | 0.0 | 0.0 | 0.00 | 0.08 | 0.00 | 97 | 1019.3 |
| 20260509141638 | 7 | 212 | 0.0 | 0.0 | 0.00 | 0.08 | 0.00 | 97 | 1019.3 |
| 20260509140916 | 7 | 212 | 0.0 | 0.0 | 0.00 | 0.08 | 0.00 | 97 | 1019.3 |
| 20260509140859 | 7 | 212 | 0.0 | 0.0 | 0.00 | 0.08 | 0.00 | 97 | 1019.2 |
| 20260509140131 | 6 | 212 | 0.0 | 0.0 | 0.00 | 0.08 | 0.00 | 97 | 1019.2 |
| 20260509135406 | 6 | 212 | 0.0 | 0.0 | 0.00 | 0.08 | 0.00 | 97 | 1019.1 |
| 20260509134901 | 6 | 212 | 0.0 | 0.0 | 0.00 | 0.08 | 0.00 | 97 | 1018.9 |
| 20260509134402 | 6 | 212 | 0.0 | 0.0 | 0.00 | 0.08 | 0.00 | 97 | 1018.9 |
| 20260509133904 | 6 | 212 | 0.0 | 0.0 | 0.00 | 0.08 | 0.00 | 97 | 1018.8 |
| 20260509133354 | 6 | 212 | 0.0 | 0.0 | 0.00 | 0.08 | 0.00 | 97 | 1018.8 |
| 20260509132847 | 6 | 212 | 0.0 | 0.0 | 0.00 | 0.08 | 0.00 | 96 | 1018.8 |
| 20260509132342 | 6 | 212 | 0.0 | 0.0 | 0.00 | 0.08 | 0.00 | 96 | 1018.7 |
| 20260509131842 | 5 | 212 | 0.0 | 0.0 | 0.00 | 0.08 | 0.00 | 96 | 1018.7 |
| 20260509131342 | 5 | 212 | 0.0 | 0.0 | 0.00 | 0.08 | 0.00 | 96 | 1018.6 |
| 20260509130842 | 5 | 212 | 0.0 | 0.0 | 0.00 | 0.08 | 0.00 | 96 | 1018.6 |
| 20260509130057 | 5 | 212 | 0.0 | 0.0 | 0.00 | 0.08 | 0.00 | 96 | 1018.4 |
| 20260509125333 | 5 | 212 | 0.0 | 0.0 | 0.00 | 0.08 | 0.00 | 96 | 1018.4 |
| 20260509124830 | 5 | 212 | 0.0 | 0.0 | 0.00 | 0.08 | 0.00 | 96 | 1018.4 |
| 20260509124550 | 5 | 212 | 0.0 | 0.0 | 0.00 | 0.08 | 0.00 | 95 | 1018.4 |
| 20260509123828 | 6 | 212 | 0.0 | 0.0 | 0.00 | 0.08 | 0.00 | 95 | 1018.3 |
| 20260509123324 | 6 | 212 | 0.0 | 0.0 | 0.00 | 0.08 | 0.00 | 95 | 1018.3 |
| 20260509122823 | 6 | 212 | 0.0 | 0.0 | 0.00 | 0.08 | 0.00 | 96 | 1018.2 |
| 20260509122318 | 6 | 212 | 0.0 | 0.0 | 0.00 | 0.08 | 0.00 | 96 | 1018.3 |
| 20260509121814 | 6 | 212 | 0.0 | 0.0 | 0.00 | 0.08 | 0.00 | 96 | 1018.3 |
| 20260509121317 | 6 | 212 | 0.0 | 0.0 | 0.00 | 0.08 | 0.00 | 96 | 1018.3 |
| 20260509120809 | 6 | 212 | 0.0 | 0.0 | 0.00 | 0.08 | 0.00 | 96 | 1018.2 |
| 20260509120300 | 6 | 212 | 0.0 | 0.0 | 0.00 | 0.08 | 0.00 | 96 | 1018.2 |
| 20260509115800 | 6 | 212 | 0.0 | 0.0 | 0.00 | 0.08 | 0.00 | 96 | 1018.1 |
| 20260509115258 | 6 | 212 | 0.0 | 0.0 | 0.00 | 0.08 | 0.00 | 96 | 1017.9 |
| 20260509114754 | 6 | 212 | 0.0 | 0.0 | 0.00 | 0.08 | 0.00 | 96 | 1017.9 |
| 20260509114240 | 6 | 212 | 0.0 | 0.0 | 0.00 | 0.08 | 0.00 | 96 | 1018.1 |
| 20260509113730 | 6 | 212 | 0.0 | 0.0 | 0.00 | 0.08 | 0.00 | 96 | 1017.9 |
| 20260509113450 | 6 | 212 | 0.0 | 0.0 | 0.00 | 0.08 | 0.00 | 96 | 1017.8 |
| 20260509112731 | 6 | 212 | 0.0 | 0.0 | 0.00 | 0.08 | 0.00 | 96 | 1017.8 |
| 20260509112446 | 6 | 212 | 0.0 | 0.0 | 0.00 | 0.08 | 0.00 | 96 | 1017.8 |
| 20260509111943 | 6 | 212 | 0.0 | 0.0 | 0.00 | 0.08 | 0.00 | 96 | 1017.7 |
| 20260509111220 | 6 | 212 | 0.0 | 0.0 | 0.00 | 0.08 | 0.00 | 96 | 1017.7 |
| 20260509110716 | 6 | 212 | 0.0 | 0.0 | 0.00 | 0.08 | 0.00 | 96 | 1017.6 |
| 20260509110213 | 6 | 212 | 0.0 | 0.0 | 0.00 | 0.08 | 0.00 | 96 | 1017.6 |
| 20260509105711 | 6 | 212 | 0.0 | 0.0 | 0.00 | 0.08 | 0.00 | 96 | 1017.6 |
| 20260509105435 | 6 | 212 | 0.0 | 0.0 | 0.00 | 0.08 | 0.00 | 96 | 1017.5 |
| 20260509104710 | 6 | 212 | 0.0 | 0.0 | 0.00 | 0.08 | 0.00 | 96 | 1017.5 |
| 20260509104213 | 6 | 212 | 0.0 | 0.0 | 0.00 | 0.08 | 0.00 | 95 | 1017.5 |
| 20260509103928 | 6 | 212 | 0.0 | 0.0 | 0.00 | 0.08 | 0.00 | 95 | 1017.4 |
| 20260509103202 | 6 | 212 | 0.0 | 0.0 | 0.00 | 0.08 | 0.00 | 95 | 1017.5 |
| 20260509102914 | 7 | 212 | 0.0 | 0.0 | 0.00 | 0.08 | 0.00 | 95 | 1017.4 |
| 20260509102357 | 7 | 212 | 0.0 | 0.0 | 0.00 | 0.08 | 0.00 | 95 | 1017.4 |
| 20260509101637 | 7 | 212 | 0.0 | 0.0 | 0.00 | 0.08 | 0.00 | 95 | 1017.3 |
| 20260509101136 | 7 | 212 | 0.0 | 0.0 | 0.00 | 0.08 | 0.00 | 95 | 1017.3 |
| 20260509100632 | 7 | 212 | 0.0 | 0.0 | 0.00 | 0.08 | 0.00 | 95 | 1017.2 |
| 20260509100132 | 7 | 212 | 0.0 | 0.0 | 0.00 | 0.08 | 0.00 | 95 | 1017.3 |
| 20260509095635 | 7 | 212 | 0.0 | 0.0 | 0.00 | 0.08 | 0.00 | 95 | 1017.2 |
| 20260509095123 | 7 | 212 | 0.0 | 0.0 | 0.00 | 0.08 | 0.00 | 95 | 1017.2 |
| 20260509094623 | 7 | 212 | 0.0 | 0.0 | 0.00 | 0.08 | 0.00 | 95 | 1017.0 |
| 20260509094344 | 7 | 212 | 0.0 | 0.0 | 0.00 | 0.08 | 0.00 | 95 | 1017.0 |
| 20260509094222 | 7 | 212 | 0.0 | 0.0 | 0.00 | 0.08 | 0.00 | 95 | 1017.0 |
| 20260509093121 | 7 | 212 | 0.0 | 0.0 | 0.00 | 0.08 | 0.00 | 95 | 1017.0 |
| 20260509092619 | 7 | 212 | 0.0 | 0.0 | 0.00 | 0.08 | 0.00 | 95 | 1016.9 |
| 20260509092118 | 7 | 212 | 0.0 | 0.0 | 0.00 | 0.08 | 0.00 | 95 | 1016.9 |
| 20260509091604 | 7 | 212 | 0.0 | 0.0 | 0.00 | 0.08 | 0.00 | 95 | 1016.9 |
| 20260509091550 | 7 | 212 | 0.0 | 0.0 | 0.00 | 0.08 | 0.00 | 95 | 1016.9 |
| 20260509090603 | 7 | 212 | 0.0 | 0.0 | 0.00 | 0.08 | 0.00 | 95 | 1016.9 |
| 20260509090322 | 7 | 212 | 0.0 | 0.0 | 0.00 | 0.08 | 0.00 | 95 | 1016.8 |
| 20260509085604 | 7 | 212 | 0.0 | 0.0 | 0.00 | 0.08 | 0.00 | 95 | 1016.7 |
| 20260509085324 | 7 | 212 | 0.0 | 0.0 | 0.00 | 0.08 | 0.00 | 95 | 1016.8 |
| 20260509085048 | 7 | 212 | 0.0 | 0.0 | 0.00 | 0.08 | 0.00 | 95 | 1016.7 |
| 20260509084055 | 7 | 212 | 0.0 | 0.0 | 0.00 | 0.08 | 0.00 | 95 | 1016.7 |
| 20260509083801 | 7 | 212 | 0.0 | 0.0 | 0.00 | 0.08 | 0.00 | 95 | 1016.7 |
| 20260509083034 | 8 | 212 | 0.0 | 0.0 | 0.00 | 0.08 | 0.00 | 95 | 1016.7 |
| 20260509082530 | 8 | 212 | 0.0 | 0.0 | 0.00 | 0.08 | 0.00 | 95 | 1016.8 |
| 20260509082027 | 8 | 212 | 0.0 | 0.0 | 0.00 | 0.08 | 0.00 | 95 | 1016.8 |
| 20260509081525 | 8 | 212 | 0.0 | 0.0 | 0.00 | 0.08 | 0.00 | 95 | 1016.7 |
| 20260509081015 | 8 | 212 | 0.0 | 0.0 | 0.00 | 0.08 | 0.00 | 95 | 1016.8 |
| 20260509080724 | 8 | 212 | 0.0 | 0.0 | 0.00 | 0.08 | 0.00 | 95 | 1016.7 |
| 20260509075956 | 8 | 212 | 0.0 | 0.0 | 0.00 | 0.08 | 0.00 | 95 | 1016.7 |
| 20260509075450 | 8 | 212 | 0.0 | 0.0 | 0.00 | 0.08 | 0.00 | 95 | 1016.7 |
| 20260509074951 | 8 | 212 | 0.0 | 0.0 | 0.00 | 0.08 | 0.00 | 95 | 1016.7 |
| 20260509074450 | 8 | 212 | 0.0 | 0.0 | 0.00 | 0.08 | 0.00 | 95 | 1016.7 |
| 20260509073951 | 8 | 212 | 0.0 | 0.0 | 0.00 | 0.08 | 0.00 | 95 | 1016.7 |
| 20260509073446 | 8 | 212 | 0.0 | 0.0 | 0.00 | 0.08 | 0.00 | 95 | 1016.7 |
| 20260509072941 | 8 | 212 | 0.0 | 0.0 | 0.00 | 0.08 | 0.00 | 95 | 1016.8 |
| 20260509072917 | 8 | 212 | 0.0 | 0.0 | 0.00 | 0.08 | 0.00 | 95 | 1016.7 |
| 20260509071932 | 8 | 212 | 0.0 | 0.0 | 0.00 | 0.08 | 0.00 | 95 | 1016.7 |
| 20260509071433 | 8 | 212 | 0.0 | 0.0 | 0.00 | 0.08 | 0.00 | 95 | 1016.8 |
| 20260509071428 | 8 | 212 | 0.0 | 0.0 | 0.00 | 0.08 | 0.00 | 95 | 1016.8 |
| 20260509070427 | 8 | 212 | 0.0 | 0.0 | 0.00 | 0.08 | 0.00 | 95 | 1016.7 |
| 20260509065918 | 8 | 212 | 0.0 | 0.0 | 0.00 | 0.08 | 0.00 | 95 | 1016.7 |
| 20260509065418 | 8 | 212 | 0.0 | 0.0 | 0.00 | 0.08 | 0.00 | 95 | 1016.7 |
| 20260509065134 | 8 | 212 | 0.0 | 0.0 | 0.00 | 0.08 | 0.00 | 95 | 1016.7 |
| 20260509064408 | 8 | 212 | 0.0 | 0.0 | 0.00 | 0.08 | 0.00 | 95 | 1016.6 |
| 20260509063903 | 9 | 212 | 0.0 | 0.0 | 0.00 | 0.08 | 0.00 | 95 | 1016.6 |
| 20260509063403 | 9 | 212 | 0.0 | 0.0 | 0.00 | 0.08 | 0.00 | 95 | 1016.7 |
| 20260509062906 | 9 | 212 | 0.0 | 0.0 | 0.00 | 0.08 | 0.00 | 95 | 1016.7 |
| 20260509062850 | 9 | 212 | 0.0 | 0.0 | 0.00 | 0.08 | 0.00 | 95 | 1016.6 |
| 20260509061854 | 9 | 212 | 0.0 | 0.0 | 0.00 | 0.08 | 0.00 | 95 | 1016.6 |
| 20260509061353 | 9 | 212 | 0.0 | 3.2 | 0.00 | 0.08 | 0.00 | 95 | 1016.5 |
| 20260509060854 | 9 | 212 | 0.0 | 4.8 | 0.00 | 0.08 | 0.00 | 95 | 1016.6 |
| 20260509060344 | 9 | 212 | 0.0 | 3.2 | 0.00 | 0.08 | 0.00 | 95 | 1016.6 |
| 20260509055844 | 9 | 211 | 0.0 | 0.0 | 0.00 | 0.08 | 0.08 | 95 | 1016.6 |
| 20260509055340 | 9 | 211 | 0.0 | 0.0 | 0.00 | 0.08 | 0.08 | 95 | 1016.6 |
| 20260509054839 | 9 | 211 | 0.0 | 0.0 | 0.00 | 0.08 | 0.08 | 95 | 1016.6 |
| 20260509054343 | 9 | 211 | 0.0 | 0.0 | 0.00 | 0.08 | 0.08 | 95 | 1016.5 |
| 20260509053830 | 9 | 211 | 0.0 | 0.0 | 0.00 | 0.08 | 0.08 | 95 | 1016.5 |
| 20260509053319 | 9 | 211 | 0.0 | 0.0 | 0.00 | 0.08 | 0.08 | 94 | 1016.4 |
| 20260509052821 | 9 | 211 | 0.0 | 0.0 | 0.00 | 0.08 | 0.08 | 94 | 1016.4 |
| 20260509052318 | 9 | 211 | 0.0 | 0.0 | 0.00 | 0.08 | 0.08 | 94 | 1016.4 |
| 20260509052131 | 9 | 211 | 0.0 | 0.0 | 0.00 | 0.08 | 0.08 | 94 | 1016.3 |
| 20260509052027 | 9 | 211 | 0.0 | 0.0 | 0.00 | 0.08 | 0.08 | 94 | 1016.4 |
| 20260509051029 | 9 | 211 | 0.0 | 0.0 | 0.00 | 0.08 | 0.08 | 94 | 1016.4 |
| 20260509050302 | 9 | 211 | 0.0 | 0.0 | 0.00 | 0.08 | 0.08 | 94 | 1016.4 |
| 20260509045803 | 9 | 211 | 0.0 | 0.0 | 0.00 | 0.08 | 0.08 | 94 | 1016.3 |
| 20260509045256 | 9 | 211 | 0.0 | 0.0 | 0.00 | 0.08 | 0.08 | 94 | 1016.3 |
| 20260509045021 | 9 | 211 | 0.0 | 1.6 | 0.00 | 0.08 | 0.08 | 94 | 1016.0 |
| 20260509044507 | 10 | 211 | 0.0 | 1.6 | 0.00 | 0.08 | 0.08 | 94 | 1016.2 |
| 20260509043742 | 10 | 212 | 0.0 | 0.0 | 0.00 | 0.08 | 0.08 | 94 | 1016.0 |
| 20260509043242 | 10 | 212 | 0.0 | 0.0 | 0.00 | 0.08 | 0.08 | 94 | 1016.2 |
| 20260509043002 | 10 | 212 | 0.0 | 0.0 | 0.00 | 0.08 | 0.08 | 93 | 1016.2 |
| 20260509042242 | 10 | 212 | 0.0 | 0.0 | 0.00 | 0.08 | 0.08 | 93 | 1016.0 |
| 20260509041733 | 10 | 212 | 0.0 | 1.6 | 0.00 | 0.08 | 0.08 | 93 | 1016.0 |
| 20260509041230 | 10 | 212 | 0.0 | 1.6 | 0.00 | 0.08 | 0.08 | 93 | 1015.9 |
| 20260509040728 | 10 | 212 | 0.0 | 0.0 | 0.00 | 0.08 | 0.08 | 93 | 1015.9 |
| 20260509040223 | 10 | 212 | 0.0 | 0.0 | 0.00 | 0.08 | 0.08 | 93 | 1015.9 |
| 20260509035723 | 10 | 212 | 0.0 | 0.0 | 0.00 | 0.08 | 0.08 | 93 | 1015.9 |
| 20260509035223 | 10 | 212 | 0.0 | 0.0 | 0.00 | 0.08 | 0.08 | 93 | 1015.8 |
| 20260509034718 | 10 | 212 | 0.0 | 0.0 | 0.00 | 0.08 | 0.08 | 93 | 1015.9 |
| 20260509034432 | 10 | 212 | 0.0 | 0.0 | 0.00 | 0.08 | 0.08 | 93 | 1015.8 |
| 20260509033934 | 10 | 212 | 0.0 | 0.0 | 0.00 | 0.08 | 0.08 | 92 | 1015.8 |
| 20260509033212 | 10 | 212 | 0.0 | 0.0 | 0.00 | 0.08 | 0.08 | 92 | 1015.8 |
| 20260509032654 | 10 | 212 | 0.0 | 0.0 | 0.00 | 0.08 | 0.08 | 92 | 1015.7 |
| 20260509032154 | 10 | 212 | 0.0 | 0.0 | 0.00 | 0.08 | 0.08 | 92 | 1015.6 |
| 20260509031656 | 10 | 212 | 0.0 | 0.0 | 0.00 | 0.08 | 0.08 | 91 | 1015.6 |
| 20260509031154 | 10 | 212 | 0.0 | 0.0 | 0.00 | 0.08 | 0.08 | 91 | 1015.5 |
| 20260509030651 | 10 | 212 | 0.0 | 0.0 | 0.00 | 0.08 | 0.08 | 91 | 1015.4 |
| 20260509030140 | 10 | 212 | 0.0 | 0.0 | 0.00 | 0.08 | 0.08 | 91 | 1015.3 |
| 20260509025901 | 11 | 212 | 0.0 | 0.0 | 0.00 | 0.08 | 0.08 | 91 | 1015.1 |
| 20260509025124 | 11 | 212 | 0.0 | 3.2 | 0.00 | 0.08 | 0.08 | 91 | 1015.0 |
| 20260509024851 | 11 | 212 | 0.0 | 3.2 | 0.00 | 0.08 | 0.08 | 90 | 1015.0 |
| 20260509024110 | 11 | 212 | 0.0 | 0.0 | 0.00 | 0.08 | 0.08 | 90 | 1014.8 |
| 20260509023604 | 11 | 212 | 0.0 | 0.0 | 0.00 | 0.08 | 0.08 | 90 | 1014.8 |
| 20260509023054 | 11 | 212 | 0.0 | 0.0 | 0.00 | 0.08 | 0.08 | 89 | 1014.8 |
| 20260509022555 | 11 | 212 | 0.0 | 0.0 | 0.00 | 0.08 | 0.08 | 89 | 1014.8 |
| 20260509022339 | 11 | 212 | 0.0 | 0.0 | 0.00 | 0.08 | 0.08 | 88 | 1014.7 |
| 20260509021540 | 11 | 212 | 0.0 | 0.0 | 0.05 | 0.08 | 0.08 | 88 | 1014.7 |
| 20260509021306 | 11 | 212 | 0.0 | 0.0 | 0.08 | 0.08 | 0.08 | 87 | 1014.7 |
| 20260509020535 | 12 | 212 | 0.0 | 0.0 | 0.08 | 0.08 | 0.08 | 87 | 1014.7 |
| 20260509020031 | 12 | 212 | 0.0 | 0.0 | 0.08 | 0.08 | 0.08 | 87 | 1014.7 |
| 20260509015521 | 12 | 212 | 0.0 | 9.7 | 0.08 | 0.08 | 0.08 | 85 | 1014.7 |
| 20260509015458 | 12 | 212 | 3.2 | 9.7 | 0.08 | 0.08 | 0.08 | 86 | 1014.7 |
| 20260509014510 | 12 | 254 | 0.0 | 0.0 | 0.08 | 0.08 | 0.08 | 85 | 1014.7 |
| 20260509014010 | 12 | 254 | 0.0 | 0.0 | 0.08 | 0.08 | 0.08 | 85 | 1014.7 |